(6) Hebe |
ephemeris |
date |
magn |
radius |
delta |
ra |
dec |
elong |
phase |
Today | 2 Jun 2023 | 11.2 | 2.718 AU | 3.027 AU | 09h08m | +19°56' | 62.8° | 19.4° |
Opposition | 22 Apr 2024 | 9.9 | 2.892 AU | 1.933 AU | 14h31m | +07°48' | 158.5° | 7.3° |
(6) Hebe - 2023-06-02
astro.vanbuitenen.nl
The interactive orbit chart above shows the body's path through the solar system and its position at the given date.
Green and blue lines are shown perpendicular to the ecliptic plane: Green if the path is above the ecliptic plane, blue if it is below.
(Left-click and drag to rotate the view; Right-click and drag to move the view; Use scroll wheel to zoom in our out.)
The orbital elements of Hebe are:
e (Eccentricity) : 0.2027524
a (Semimajor axis) : 2.4252405
i (Inclination) : 14.73757
Ω (Longitude of ascending node) : 138.63825
ω (Argument of perihelion) : 239.54004
M (Mean anomaly) : 91.86530
Epoch : 2023 Feb 25
L (Longitude of perihelion) : 197.33404
B (Latitude of perihelion) : -12.66686
P (Orbital period in years) : 3.78
The light curve chart below shows the estimated development of the minor planet's magnitude.
The all-sky chart below shows the path of the minor planet over the same period as the light curve. The current position is marked yellow.
The following chart shows the path of the minor planet in the next few days. The field of view is optimized for (~10x50) binoculars and finderscopes.
A more printer-friendly version of the same chart can be found below.
Ephemerides:
Date Time RA (2000) DEC (2000) delta radius elong phase PA magn
2023-06-02 00:00 UT 09 08 41.3 +19 56 49 3.027 2.718 62.8 19.4 105 11.2
2023-06-02 22:52 UT 09 09 58.3 +19 53 10 3.040 2.719 62.2 19.3 105 11.2
2023-06-03 00:00 UT 09 10 02.1 +19 52 59 3.041 2.719 62.2 19.3 105 11.2
2023-06-04 00:00 UT 09 11 23.2 +19 49 05 3.054 2.721 61.5 19.1 105 11.2
2023-06-05 00:00 UT 09 12 44.7 +19 45 06 3.067 2.723